DW9896 Eastsound WA US current weather conditions

sailwx.info

Wind from 107 at 9 knots gusting 19

Air temperature 8.9° C
Dewpoint 8.1° C

Last reported at 2019-Nov-17 07:01 UTC.
Time now 2019-Nov-17 07:28 UTC

Location: N 48°40' W 122°52'.
View on Google Maps.

See reports from other nearby stations

  
Tides and Currents Weather Stations Pressure Air Temp Water Temp Dewpoint Dewpoint Depression Visibility Wind Speed Wind Dir Waves Ship Positions
date/time (UTC)wind fromknots sea level pressurealtimeterstation pressurevisibilityair tempwater tempwave heightnotes
2019-Nov-17 07:01 107 9 gusting 19 8.9
2019-Nov-17 06:45 118 8 gusting 15 8.9
2019-Nov-17 06:30 126 9 gusting 19 8.9
2019-Nov-17 06:17 119 11 gusting 18 8.3
2019-Nov-17 06:00 105 8 gusting 19 8.9
2019-Nov-17 05:45 140 10 gusting 21 8.3
2019-Nov-17 05:31 151 10 gusting 34 8.3
2019-Nov-17 05:15 120 12 gusting 29 8.3
2019-Nov-17 05:00 111 10 gusting 22 8.3
2019-Nov-17 04:45 098 11 gusting 23 8.3
2019-Nov-17 04:32 119 12 gusting 25 7.8
2019-Nov-17 04:01 105 12 gusting 30 7.8
2019-Nov-17 03:45 114 12 gusting 24 7.8
2019-Nov-17 03:30 106 13 gusting 24 7.8
2019-Nov-17 03:16 111 13 gusting 26 7.8
2019-Nov-17 03:01 106 11 gusting 22 7.8
2019-Nov-17 02:31 125 11 gusting 26 7.8
2019-Nov-17 02:15 112 9 gusting 19 7.8
2019-Nov-17 02:01 069 8 gusting 19 7.8
2019-Nov-17 01:48 151 9 gusting 22 7.8
2019-Nov-17 01:31 119 9 gusting 19 8.3
2019-Nov-17 01:15 127 9 gusting 19 8.3
2019-Nov-17 00:45 146 9 gusting 17 8.9
2019-Nov-17 00:30 105 9 gusting 19 8.9
2019-Nov-17 00:16 111 7 gusting 19 8.9
2019-Nov-17 00:00 120 10 gusting 21 8.9
2019-Nov-16 23:46 103 8 gusting 16 8.3
2019-Nov-16 23:30 101 10 gusting 23 8.3
2019-Nov-16 23:00 121 10 gusting 18 8.9
2019-Nov-16 22:48 127 9 gusting 20 8.9
2019-Nov-16 22:31 113 9 gusting 18 8.9
2019-Nov-16 22:15 115 9 gusting 21 8.9
2019-Nov-16 22:02 108 8 gusting 15 8.9
2019-Nov-16 21:45 108 9 gusting 19 8.9
2019-Nov-16 21:31 120 11 gusting 25 8.9
2019-Nov-16 21:15 138 10 gusting 24 8.9
2019-Nov-16 21:03 127 8 gusting 22 8.3
2019-Nov-16 20:46 097 12 gusting 21 8.3
2019-Nov-16 20:31 119 10 gusting 21 8.3
2019-Nov-16 20:15 129 9 gusting 23 7.8
2019-Nov-16 20:02 130 6 gusting 16 8.3
2019-Nov-16 19:46 109 8 gusting 17 8.3
2019-Nov-16 19:30 123 8 gusting 17 8.3
2019-Nov-16 19:16 122 8 gusting 13 8.3
2019-Nov-16 19:01 070 4 gusting 13 8.3
2019-Nov-16 18:46 118 5 gusting 12 8.3
2019-Nov-16 18:30 134 6 gusting 16 8.3
2019-Nov-16 18:17 119 5 gusting 13 8.3
2019-Nov-16 18:01 111 7 gusting 14 8.3
2019-Nov-16 17:46 125 6 gusting 19 8.3
2019-Nov-16 17:32 107 8 gusting 17 8.3
2019-Nov-16 16:46 108 8 gusting 23 7.8
2019-Nov-16 16:30 108 8 gusting 18 7.8
2019-Nov-16 16:16 123 6 gusting 14 7.8
2019-Nov-16 16:01 126 6 gusting 16 7.8
2019-Nov-16 15:45 138 6 gusting 14 7.8
2019-Nov-16 15:31 119 8 gusting 17 7.8
2019-Nov-16 15:15 125 8 gusting 16 7.8
2019-Nov-16 15:00 111 8 gusting 19 7.8
2019-Nov-16 14:45 122 6 gusting 15 7.8
2019-Nov-16 14:32 117 5 gusting 14 7.8
2019-Nov-16 14:16 086 6 gusting 15 7.8
2019-Nov-16 14:00 125 6 gusting 13 7.8
2019-Nov-16 13:47 117 5 gusting 8 7.8
2019-Nov-16 13:30 117 4 gusting 10 7.8
2019-Nov-16 13:17 084 5 gusting 9 7.8
2019-Nov-16 13:01 128 5 gusting 10 7.8
2019-Nov-16 12:46 117 4 gusting 10 7.8
2019-Nov-16 12:30 118 6 gusting 12 7.8
2019-Nov-16 12:16 105 4 gusting 6 7.8
2019-Nov-16 12:00 109 6 gusting 9 8.3
2019-Nov-16 11:46 093 5 gusting 8 8.3
2019-Nov-16 11:30 100 3 gusting 7 8.3
2019-Nov-16 11:15 120 4 gusting 9 8.3
2019-Nov-16 11:00 102 4 gusting 9 8.3
2019-Nov-16 10:45 077 4 gusting 8 8.3
2019-Nov-16 10:31 096 4 gusting 6 8.3
2019-Nov-16 10:15 115 5 gusting 7 8.9
2019-Nov-16 09:46 107 1 gusting 6 8.3
2019-Nov-16 09:30 094 3 gusting 9 8.9
2019-Nov-16 09:01 105 2 gusting 8 8.3
2019-Nov-16 08:45 104 5 gusting 7 8.3
2019-Nov-16 08:16 165 0 gusting 6 8.3
2019-Nov-16 08:00 130 3 gusting 7 7.8
2019-Nov-16 07:46 115 2 gusting 6 7.8
2019-Nov-16 07:31 097 2 gusting 6 7.8
2019-Nov-16 07:15 137 0 gusting 6 7.8
2019-Nov-16 07:01 106 3 gusting 6 7.8
2019-Nov-16 06:45 085 3 gusting 6 8.3
2019-Nov-16 06:31 115 3 gusting 6 8.3
2019-Nov-16 06:15 157 1 gusting 5 8.3
2019-Nov-16 06:00 127 1 gusting 6 8.3
2019-Nov-16 05:48 243 2 gusting 6 8.3
2019-Nov-16 05:32 043 1 gusting 5 7.8
2019-Nov-16 05:15 141 1 gusting 7 8.3
2019-Nov-16 05:02 337 2 gusting 6 8.3
2019-Nov-16 04:46 044 2 gusting 4 8.9
2019-Nov-16 04:30 331 1 gusting 9 8.9
2019-Nov-16 04:16 267 4 gusting 9 8.9
2019-Nov-16 04:01 260 3 gusting 10 9.4
2019-Nov-16 03:45 248 2 gusting 9 8.9
2019-Nov-16 03:32 307 4 gusting 7 8.9
2019-Nov-16 03:16 251 2 gusting 7 8.9
2019-Nov-16 03:00 198 1 gusting 4 8.9
2019-Nov-16 02:45 271 1 gusting 8 8.9
2019-Nov-16 02:17 281 2 gusting 12 9.4
2019-Nov-16 02:01 303 3 gusting 12 9.4
2019-Nov-16 01:46 283 4 gusting 10 9.4
2019-Nov-16 01:30 124 10.0
2019-Nov-16 01:15 259 3 gusting 8 10.0
2019-Nov-16 01:00 178 5 gusting 11 10.0
2019-Nov-16 00:46 219 5 gusting 12 10.0
2019-Nov-16 00:30 202 4 gusting 11 10.6
2019-Nov-16 00:16 222 5 gusting 11 11.1
2019-Nov-16 00:01 249 3 gusting 10 11.1
2019-Nov-15 23:45 234 5 gusting 13 11.7
2019-Nov-15 23:31 250 7 gusting 13 11.7
2019-Nov-15 23:16 206 5 gusting 8 11.7
2019-Nov-15 23:00 209 3 gusting 7 11.7
2019-Nov-15 22:46 200 3 gusting 10 11.7
2019-Nov-15 22:31 217 4 gusting 13 11.7
2019-Nov-15 22:16 201 5 gusting 10 12.2
2019-Nov-15 22:00 254 5 gusting 12 11.7
2019-Nov-15 21:45 161 5 gusting 13 11.7
2019-Nov-15 21:32 268 3 gusting 9 11.7
2019-Nov-15 21:16 234 4 gusting 14 11.1
2019-Nov-15 21:00 234 5 gusting 8 10.6
2019-Nov-15 20:45 166 2 gusting 12 10.0
2019-Nov-15 20:32 215 6 gusting 11 9.4
2019-Nov-15 20:15 228 1 gusting 10 8.9
2019-Nov-15 20:00 074 3 gusting 9 8.9
2019-Nov-15 19:45 107 6 gusting 11 8.3
2019-Nov-15 19:32 101 4 gusting 9 8.3
2019-Nov-15 19:17 101 2 gusting 10 8.3
2019-Nov-15 19:01 140 6 gusting 13 7.8
2019-Nov-15 18:47 112 4 gusting 14 7.8
2019-Nov-15 18:31 100 6 gusting 17 8.3
2019-Nov-15 18:15 090 6 gusting 12 7.8
2019-Nov-15 18:02 105 7 gusting 12 7.8
2019-Nov-15 17:46 116 4 gusting 6 7.8
2019-Nov-15 17:30 132 2 gusting 10 7.8
2019-Nov-15 17:16 094 8 gusting 13 7.8
2019-Nov-15 17:02 113 6 gusting 15 7.8
2019-Nov-15 16:46 107 7 gusting 15 7.8
2019-Nov-15 16:30 104 6 gusting 14 7.8
2019-Nov-15 16:00 144 3 gusting 15 7.8
2019-Nov-15 15:46 114 6 gusting 17 7.8
2019-Nov-15 15:31 126 8 gusting 17 7.8
2019-Nov-15 15:15 121 9 gusting 14 7.8
2019-Nov-15 15:01 128 8 gusting 19 7.8
2019-Nov-15 14:30 108 8 gusting 14 7.8
2019-Nov-15 14:17 093 8 gusting 18 7.8
2019-Nov-15 14:01 110 6 gusting 18 7.8
2019-Nov-15 13:46 123 6 gusting 17 7.8
2019-Nov-15 13:30 112 8 gusting 18 7.8
2019-Nov-15 13:16 132 8 gusting 16 7.8
2019-Nov-15 13:01 109 6 gusting 12 7.8
2019-Nov-15 12:46 114 6 gusting 13 7.8
2019-Nov-15 12:30 128 6 gusting 13 7.8
2019-Nov-15 12:17 128 6 gusting 13 8.3
2019-Nov-15 12:00 154 6 gusting 14 8.3
2019-Nov-15 11:45 112 7 gusting 14 8.9
2019-Nov-15 11:30 109 6 gusting 14 8.9
2019-Nov-15 11:16 124 6 gusting 13 8.9
2019-Nov-15 11:01 126 6 gusting 13 8.9
2019-Nov-15 10:45 115 6 gusting 16 8.9
2019-Nov-15 10:30 101 6 gusting 12 8.9
2019-Nov-15 10:18 091 7 gusting 12 8.9
2019-Nov-15 10:02 123 6 gusting 14 8.3
2019-Nov-15 09:45 100 5 gusting 9 8.3
2019-Nov-15 09:31 113 4 gusting 10 8.3
2019-Nov-15 09:16 096 6 gusting 11 7.8
2019-Nov-15 09:00 101 6 gusting 10 7.8
2019-Nov-15 08:45 088 6 gusting 11 7.2
2019-Nov-15 08:16 169 4 gusting 8 7.8
2019-Nov-15 08:00 171 5 gusting 8 8.3
2019-Nov-15 07:46 163 4 gusting 13 8.3
2019-Nov-15 07:30 107 5 gusting 12 8.3
2019-Nov-15 07:16 180 3 gusting 7 8.9
2019-Nov-15 07:00 169 1 gusting 8 8.9